Location: Chochol
(49.7771°N, 14.9780°E)
Time: 23:50:26
(UTC+00:00)

STARLINK-1241 - Pass Details

Date: 09 April 2020
Orbit: 549 x 551 km, 53.0° (Epoch: 29 May)

Event Time Altitude Azimuth Distance (km) Brightness Sun altitude
Rises 18:29:53 0° 289° (WNW) 2,725 9.7 -7.8°
Reaches altitude 10° 18:32:08 10° 292° (WNW) 1,830 8.0 -8.1°
Maximum altitude 18:36:17 70° 16° (NNE) 589 3.8 -8.7°
Enters shadow 18:40:08 12° 100° (E) 1,708 5.5 -9.3°
